Nantucket, MA

7:23 PM EDT on April 24, 2017 (GMT -0400)
Nantucket Memorial

Weather History for KACK - September, 2013

Change the Weather History Date:

Friday, September 27, 2013

  Actual Average Record
Temperature  
Mean Temperature 58 °F -  
Max Temperature 63 °F 68 °F 75 °F (1970)
Min Temperature 52 °F 54 °F 38 °F (1966)
Degree Days  
Heating Degree Days 8    
Growing Degree Days 8 (Base 50)    
Moisture  
Dew Point 52 °F    
Average Humidity 79    
Maximum Humidity 97    
Minimum Humidity 68    
Precipitation  
Precipitation 0.00 in - - ()
Sea Level Pressure  
Sea Level Pressure 30.16 in    
Wind  
Wind Speed 14 mph (NNE)    
Max Wind Speed 21 mph    
Max Gust Speed 28 mph    
Visibility 10 miles    
Events      
Averages and records for this station are not official NWS values.
T = Trace of Precipitation, MM = Missing Value Source: NWS Daily Summary

Daily Weather History Graph

Daily Weather History Graph

Search for Another Location

Airport or City:

Trip Planner

Search our weather history database for the weather conditions in past years. The results will help you decide how hot, cold, wet, or windy it might be!

Date:

Astronomy

Sep. 27, 2013 Rise Set
Actual Time 6:33 AM EDT 6:28 PM EDT
Civil Twilight 6:05 AM EDT 6:56 PM EDT
Nautical Twilight 5:33 AM EDT 7:28 PM EDT
Astronomical Twilight 5:00 AM EDT 8:00 PM EDT
Moon No Moon Rise 2:07 PM EDT (9/27)
Length of Visible Light 12h 50m
Length of Day
11h 55m
Last Quarter, 45% of the Moon is Illuminated
Sep 27
Last Quarter
Oct 4
New
Oct 11
First Quarter
Oct 18
Full
Oct 26
Last Quarter

Hourly Weather History & Observations

Time (EDT) Temp. Dew Point Humidity Pressure Visibility Wind Dir Wind Speed Gust Speed Precip Events Conditions
12:53 AM 57.9 °F 50.0 °F 75% 30.08 in 10.0 mi North 11.5 mph - N/A   Overcast
1:53 AM 57.9 °F 51.1 °F 78% 30.09 in 10.0 mi North 16.1 mph - N/A   Overcast
2:53 AM 57.9 °F 48.9 °F 72% 30.09 in 10.0 mi NE 16.1 mph - N/A   Overcast
3:53 AM 57.9 °F 50.0 °F 75% 30.09 in 10.0 mi North 11.5 mph - N/A   Overcast
4:53 AM 59.0 °F 51.1 °F 75% 30.10 in 10.0 mi North 11.5 mph - N/A   Overcast
5:53 AM 57.9 °F 52.0 °F 81% 30.11 in 10.0 mi North 13.8 mph - N/A   Overcast
6:53 AM 57.9 °F 52.0 °F 81% 30.12 in 10.0 mi North 16.1 mph - N/A   Overcast
7:53 AM 59.0 °F 53.1 °F 81% 30.14 in 10.0 mi North 17.3 mph - N/A   Overcast
8:53 AM 60.1 °F 53.1 °F 78% 30.16 in 10.0 mi North 17.3 mph - N/A   Overcast
9:31 AM 60.8 °F 53.6 °F 77% 30.17 in 10.0 mi North 15.0 mph - N/A   Overcast
9:53 AM 61.0 °F 53.1 °F 75% 30.17 in 10.0 mi NNE 15.0 mph - N/A   Overcast
10:53 AM 62.1 °F 53.1 °F 72% 30.17 in 10.0 mi North 17.3 mph - N/A   Overcast
11:39 AM 62.6 °F 51.8 °F 68% 30.18 in 10.0 mi NNE 17.3 mph 25.3 mph N/A   Overcast
11:53 AM 62.1 °F 52.0 °F 70% 30.18 in 10.0 mi NNE 16.1 mph 23.0 mph N/A   Overcast
12:53 PM 61.0 °F 51.1 °F 70% 30.18 in 10.0 mi NNE 20.7 mph 27.6 mph N/A   Overcast
1:53 PM 60.1 °F 51.1 °F 72% 30.17 in 10.0 mi NNE 19.6 mph 26.5 mph N/A   Overcast
2:53 PM 60.1 °F 51.1 °F 72% 30.17 in 10.0 mi NNE 18.4 mph - N/A   Overcast
3:53 PM 60.1 °F 51.1 °F 72% 30.16 in 10.0 mi NNE 17.3 mph 21.9 mph N/A   Overcast
4:53 PM 59.0 °F 51.1 °F 75% 30.17 in 10.0 mi NNE 16.1 mph - N/A   Overcast
5:53 PM 59.0 °F 51.1 °F 75% 30.18 in 10.0 mi NNE 13.8 mph - N/A   Mostly Cloudy
6:12 PM 57.2 °F 51.8 °F 82% 30.18 in 10.0 mi NNE 11.5 mph - N/A   Partly Cloudy
6:53 PM 57.0 °F 52.0 °F 83% 30.19 in 10.0 mi NNE 10.4 mph - N/A   Partly Cloudy
7:53 PM 55.9 °F 53.1 °F 90% 30.20 in 10.0 mi NNE 10.4 mph - N/A   Clear
8:53 PM 55.9 °F 53.1 °F 90% 30.22 in 10.0 mi NNE 8.1 mph - N/A   Clear
9:53 PM 53.1 °F 51.1 °F 93% 30.23 in 10.0 mi North 6.9 mph - N/A   Clear
10:53 PM 53.1 °F 51.1 °F 93% 30.24 in 10.0 mi North 5.8 mph - N/A   Clear
11:53 PM 52.0 °F 51.1 °F 97% 30.24 in 10.0 mi North 6.9 mph - N/A   Clear